Regional Weather Roundup
Issued by NWS

Home | Current Version | Previous Version | Text Only | Print | Product List | Glossary On
Versions: 1 2 3 4 5 6 7 8 9 10 11 12 13 14 15 16 17 18 19 20 21 22 23 24 25 26 27 28 29 30 31 32 33 34 35 36 37 38 39 40 41 42 43 44 45 46 47 48 49 50
000
ASUS46 KPQR 021710
RWROR

OREGON REGIONAL WEATHER ROUNDUP
NATIONAL WEATHER SERVICE PORTLAND OR
1000 AM PDT SUN AUG 02 2015

NOTE: "FAIR" INDICATES FEW OR NO CLOUDS BELOW 12,000 FEET WITH
NO SIGNIFICANT WEATHER AND/OR OBSTRUCTIONS TO VISIBILITY.

ORZ001>013-021800-
NORTHWEST OREGON


CITY           SKY/WX    TMP DP  RH WIND       PRES   REMARKS
ASTORIA        CLOUDY    62  58  86 E8        29.92F
NEWPORT        CLOUDY    57  55  94 SW7       30.03R
PORTLAND       MOSUNNY   76  56  49 CALM      29.93F
VANCOUVER WA   MOSUNNY   76  53  44 VRB5      29.92F
SCAPPOOSE      MOSUNNY   76  52  43 N8        29.92F
HILLSBORO      MOSUNNY   75  50  41 E5        29.92F
AURORA         PTSUNNY   73  53  49 S6        29.95R
MCMINNVILLE    PTSUNNY   71  54  54 S8        29.96R
SALEM          CLOUDY    69  53  56 SW10      29.95R
CORVALLIS      CLOUDY    64  54  68 N3        29.98F
EUGENE         CLOUDY    65  53  65 CALM      29.95F
$$

ORZ021-028-021800-
SOUTHWEST OREGON


CITY           SKY/WX    TMP DP  RH WIND       PRES   REMARKS
NORTH BEND     CLOUDY    59  57  94 W7        29.99R
BROOKINGS      CLOUDY    58  58 100 SW3       29.99S FOG
ROSEBURG       CLOUDY    68  55  63 E5        29.96R
SEXTON SUMMIT  HAZE      69  49  48 VRB3      30.06S VSB 3/4
MEDFORD        HAZE      75  56  51 CALM      29.92F VSB 1
$$

ORZ014>016-041-021800-
COLUMBIA GORGE


CITY           SKY/WX    TMP DP  RH WIND       PRES   REMARKS
TROUTDALE      MOSUNNY   76  55  48 CALM      29.92F
THE DALLES     MOSUNNY   84  48  28 VRB3      29.85S
$$

ORZ029>031-041-044-049-050-061>064-502-503-505>511-021800-
EASTERN OREGON


CITY           SKY/WX    TMP DP  RH WIND       PRES   REMARKS
REDMOND        CLOUDY    80  33  18 CALM      30.01S
BEND           CLOUDY    77  39  25 CALM      30.03F
PRINEVILLE     CLOUDY    81  28  15 W7        30.01F
KLAMATH FALLS  CLOUDY    73  51  46 S5        30.06R SMOKE
LAKEVIEW       PTSUNNY   81  50  34 S10       30.09S
HERMISTON      MOSUNNY   83  44  25 NW6       29.86S
PENDLETON      SUNNY     87  35  15 W6        29.90S
JOHN DAY       SUNNY     80  31  16 W5        30.03S
MEACHAM        SUNNY     87  34  15 CALM      30.03S
LA GRANDE      SUNNY     73  30  20 CALM      30.00S
BAKER CITY     SUNNY     78  39  24 W5        30.01F
BURNS          SUNNY     87  27  11 S5        30.03S
ROME             N/A     90  42  18 SW9       30.00F
ONTARIO        SUNNY     90  38  16 CALM      29.90S
$$


USA.gov is the U.S. government's official web portal to all federal, state and local government web resources and services.